Location: Les Moreaux
(47.2278°N, 1.4966°E)
Time: 17:50:28
(UTC+00:00)

Cosmos 2150 Rocket - Pass Details

Date: 19 May 2025
Orbit: 745 x 804 km, 74.0° (Epoch: 22 June)

Event Time Altitude Azimuth Distance (km) Brightness Sun altitude
Rises 21:33:26 0° 338° (NNW) 3,294 8.9 -16.1°
Reaches altitude 10° 21:35:50 10° 340° (NNW) 2,368 7.8 -16.3°
Maximum altitude 21:41:15 80° 67° (ENE) 817 4.1 -16.8°
Enters shadow 21:44:08 29° 151° (SSE) 1,439 4.8 -17.0°
